Regional Weather Roundup
Issued by NWS

Home | Current Version | Previous Version | Text Only | Print | Product List | Glossary Off
Versions: 1 2 3 4 5 6 7 8 9 10 11 12 13 14 15 16 17 18 19 20 21 22 23 24 25 26 27 28 29 30 31 32 33 34 35 36 37 38 39 40 41 42 43 44 45 46 47 48 49 50

000
ASUS43 KLMK 231210
RWRKY
KENTUCKY REGIONAL WEATHER ROUNDUP
NATIONAL WEATHER SERVICE LOUISVILLE KY
800 AM EDT WED MAY 23 2018

NOTE "FAIR" INDICATES FEW OR NO CLOUDS BELOW 12,000 FEET
WITH NO SIGNIFICANT WEATHER AND/OR OBSTRUCTIONS TO VISIBILITY.

KYZ001>023-026-027-061>063-070>075-231300-
WESTERN AND SOUTH CENTRAL KENTUCKY

CITY           SKY/WX    TMP DP  RH WIND       PRES   REMARKS
PADUCAH        FAIR      71  67  87 CALM      30.08R
HENDERSON      NOT AVBL
OWENSBORO      FAIR      69  64  84 NE9       30.10R
HOPKINSVILLE   FAIR      68  68 100 CALM      30.09R
BOWLING GREEN  CLOUDY    68  68 100 CALM      30.10R
GLASGOW        CLOUDY    66  65  98 CALM      30.11R FOG
$$

KYZ024-025-028>034-038-045-046-053-231300-
NORTH CENTRAL KENTUCKY

CITY           SKY/WX    TMP DP  RH WIND       PRES   REMARKS
LOUISVILLE/SDF FAIR      70  62  76 NE6       30.11R
LOUISVILLE/LOU FAIR      69  63  81 N5        30.11R
FORT KNOX      FAIR      68  67  95 NE6       30.11R
$$

KYZ035>037-039>044-047>052-055>060-089>105-231300-
NORTHEAST KENTUCKY

CITY           SKY/WX    TMP DP  RH WIND       PRES   REMARKS
LEXINGTON      FAIR      69  64  84 NE7       30.11R
COVINGTON      FAIR      65  59  81 N6        30.12R
FRANKFORT      FAIR      67  62  84 N3        30.10R
$$

KYZ054-064>069-076>088-106>120-231300-
SOUTHEAST KENTUCKY

CITY           SKY/WX    TMP DP  RH WIND       PRES   REMARKS
JACKSON        CLOUDY    66  65  96 CALM      30.11S
LONDON         FOG       64  64 100 S3        30.12S VSB 1/4
SOMERSET       CLOUDY    63  63 100 MISG      30.13R FOG
MIDDLESBORO    FOG       64  64 100 CALM      30.14R VSB 1/2
MONTICELLO     PTSUNNY   64  64 100 CALM      30.14R
$$





USA.gov is the U.S. government's official web portal to all federal, state and local government web resources and services.